Вернуться в каталог

COSMOS 1275 DEB

АктивенPO
NORAD 42203·DEBRIS·🇷🇺 Russia

Запущен Jun 4, 1981 с Plesetsk Cosmodrome

Loading…

Ближайшие Пролёты (ближайшие 24 часа)

TLE

УстаревающийSource: Space-Track

Эпоха: Sep 9, 2026, 03:49 UTC

1 42203U 81053TT  26252.15919304  .00000981  00000-0  95139-3 0  9995
2 42203  82.9959 203.0667 0113962 194.9642 225.1425 13.75907674640006

Отслеживайте COSMOS 1275 DEB в реальном времени с AllMySat

Download on the App Store